Regional Weather Roundup
Issued by NWS Northern Indiana

Home | Current Version | Previous Version | Graphics & Text | Print | Product List | Glossary On
Versions: 1 2 3 4 5 6 7 8 9 10 11 12 13 14 15 16 17 18 19 20 21 22 23 24 25 26 27 28 29 30 31 32 33 34 35 36 37 38 39 40 41 42 43 44 45 46 47 48 49 50
000
ASUS43 KIWX 051610
RWRIWX

KIWX WEATHER ROUNDUP
NATIONAL WEATHER SERVICE NORTHERN INDIANA
1100 AM EST THU MAR 05 2015

NOTE: "FAIR" INDICATES FEW OR NO CLOUDS BELOW 12,000 FEET WITH NO
SIGNIFICANT WEATHER AND/OR OBSTRUCTIONS TO VISIBILITY.

* THESE STATIONS ARE NOT UNDER NWS QUALITY CONTROL. THEY ALSO MAY NOT
  REPORT WEATHER SUCH AS PRECIPITATION OR FOG.

INZ001>027-051700-
NORTHERN INDIANA

CITY           SKY/WX    TMP DP  RH WIND       PRES   REMARKS
GARY*          MOSUNNY   18   0  45 NW14      30.45S WCI   4
VALPARAISO     LGT SNOW  17   9  70 NW12      30.42R WCI   4
MICHIGAN CITY* PTSUNNY   19   3  49 NW9       30.43R WCI   9
LAPORTE*       PTSUNNY   21   8  56 NW8       30.41S WCI  11
KNOX*            N/A     18   0  45 W6        30.42R WCI   9
SOUTH BEND     PTSUNNY   19   4  51 CALM      30.41S
ELKHART*       MOSUNNY   16  -2  45 CALM      30.42S
GOSHEN         MOSUNNY   15   2  56 CALM      30.40S
MONTICELLO*    SUNNY     14   7  72 W7        30.43R WCI   4
LOGANSPORT*    CLOUDY    18   3  53 CALM      30.43R
ROCHESTER*     PTSUNNY   23   7  50 N6        30.42R WCI  16
WARSAW*        FAIR      18   1  49 CALM      30.40S
ANGOLA*        SUNNY     16   0  48 NW5       30.37S WCI   9
FORT WAYNE     PTSUNNY   18   1  47 CALM      30.40R
PERU/GRISSOM   PTSUNNY   18   5  57 NW6       30.40R WCI   9

$$
INZ028>050-051700-
CENTRAL INDIANA

CITY           SKY/WX    TMP DP  RH WIND       PRES   REMARKS
LAFAYETTE      SUNNY     15   4  61 VRB5      30.45R WCI   8
KOKOMO*        MOSUNNY   18   5  57 NE3       30.41R
MUNCIE*        MOSUNNY   17   3  54 N8        30.38R WCI   7
INDIANAPOLIS   MOSUNNY   20   7  57 N7        30.38S WCI  11

$$
MIZ043>046-050>051-056>058-064>065-071>073-077>080-051700-
SOUTHWEST LOWER MICHIGAN

CITY           SKY/WX    TMP DP  RH WIND       PRES   REMARKS
BATTLE CREEK   SUNNY     13   0  56 CALM      30.39F
BENTON HARBOR  MOSUNNY   15   3  59 CALM      30.42F
COLDWATER*     FAIR      12   1  62 CALM      30.38S
HILLSDALE*     MOSUNNY   13   1  59 N5        30.34F WCI   5
HOLLAND        SUNNY     13  -1  54 E5        30.43F WCI   5
GRAND RAPIDS   MOSUNNY   12  -4  48 CALM      30.42F
KALAMAZOO      SUNNY     13   1  59 CALM      30.40F
STURGIS*       MOSUNNY   12   1  62 CALM      30.38S
THREE RIVERS*  FAIR      12   1  62 CALM      30.41S

$$
OHZ001>008-015>018-024>025-051700-
NORTHWEST OHIO

CITY           SKY/WX    TMP DP  RH WIND       PRES   REMARKS
WAUSEON*       FAIR      14   3  62 NE6       30.39S WCI   5
DEFIANCE       PTSUNNY   17   3  54 N5        30.40F WCI  10
FINDLAY        CLOUDY    17   5  59 N8        30.36F WCI   7
TOLEDO EXPRESS MOSUNNY   14   4  64 NW6       30.38F WCI   5
TOLEDO METCALF MOSUNNY   14   2  58 N8        30.39F WCI   3
LIMA           CLOUDY    16   4  59 N7        30.35F WCI   6

$$
AND FOR LAKE MICHIGAN COASTAL AND OPEN LAKE BUOY OBSERVATIONS

STATION/POSITION TEMP    WIND        PRES    VSBY  WAVE
                 AIR SEA DIR/SP/G                  HT/PER
                 (F)     (DEG/KT/KT) (MB)    (MI)  (FT/S)
CALUMET HARBOR    15     320/  7/ 10 1029.8S
MICHIGAN CITY     18     280/ 15/ 19   N/A
SAINT JOSEPH      20      CALM  /  3 1030.1F

$$
&&


USA.gov is the U.S. government's official web portal to all federal, state and local government web resources and services.